Home   Weather   Finse   Past weeks

Flag for Norway Past Weather in Finse, Norway — Yesterday and Last 2 Weeks

Now
44 °F

Quite cool.


Feels Like: 44 °F
Forecast: 34 / 44 °F
Wind: 1 mph from Southeast

Location: Filefjell

Current Time: Sep 26, 2016 at 9:14:40 AM

Latest Report: Sep 26, 2016 at 8:00 AM


Visibility: N/A

Pressure: 30.04 "Hg (25.87 "Hg at 1221m altitude)

Humidity: 92%

Dew Point: 42 °F

Location of FinseLocation

Past Weather in Finse — Graph

°F

Finse Temperature Yesterday

Maximum temperature yesterday: 60 °F (at 4:00 PM)
Minimum temperature yesterday: 41 °F (at 12:00 AM)
Average temperature yesterday: 48 °F

High & Low Weather Summary for the Past Weeks

 TemperatureHumidityPressure
High70 °F (Sep 15, 5:00 PM)100% (Sep 19, 4:00 AM)30.32 "Hg (Sep 19, 4:00 AM)
Low27 °F (Sep 12, 7:00 AM)35% (Sep 12, 4:00 PM)29.70 "Hg (Sep 11, 8:00 AM)
Average48 °F84%30.11 "Hg
* Reported Sep 11 8:00 AM — Sep 26 8:00 AM, Finse, Weather by CustomWeather, © 2016

Note: Actual official high and low records may vary slightly from our data, if they occured in-between our weather recording intervals... More about our weather records

Advertising

Finse Weather History for the Previous 24 Hours

Scroll right to see more
 ConditionsComfort  
Time TempWeatherWind HumidityBarometerVisibility
8:00 AM
Mon, Sep 26
44 °FQuite cool.1 mph92%30.04 "HgN/A
7:00 AM45 °FCool.3 mph88%30.01 "HgN/A
6:00 AM47 °FCool.2 mph88%29.98 "HgN/A
5:00 AM50 °FCool.6 mph84%29.94 "HgN/A
4:00 AM51 °FCool.6 mph78%29.94 "HgN/A
3:00 AM51 °FCool.7 mph73%29.94 "HgN/A
2:00 AM51 °FCool.6 mph71%29.95 "HgN/A
1:00 AM50 °FCool.5 mph74%29.97 "HgN/A
12:00 AM51 °FCool.6 mph68%29.97 "HgN/A
11:00 PM
Sun, Sep 25
50 °FCool.3 mph68%29.97 "HgN/A
10:00 PM51 °FCool.8 mph70%29.98 "HgN/A
9:00 PM52 °FCool.6 mph65%29.98 "HgN/A
8:00 PM51 °FCool.6 mph65%29.97 "HgN/A
7:00 PM53 °FCool.5 mph58%29.96 "HgN/A
6:00 PM56 °FRefreshingly cool.3 mph52%29.93 "HgN/A
5:00 PM59 °FRefreshingly cool.5 mph46%29.91 "HgN/A
4:00 PM60 °FRefreshingly cool.6 mph50%29.90 "HgN/A
3:00 PM58 °FCool.6 mph62%29.92 "HgN/A
2:00 PM52 °FCool.7 mph75%29.96 "HgN/A
1:00 PM49 °FCool.7 mph84%29.99 "HgN/A
12:00 PM47 °FCool.8 mph87%30.01 "HgN/A
11:00 AM46 °FCool.7 mph89%30.00 "HgN/A
10:00 AM45 °FQuite cool.6 mph89%30.01 "HgN/A
9:00 AM43 °FQuite cool.6 mph92%30.03 "HgN/A
Weather by CustomWeather, © 2016

See weather overviewHow to use our weather pages